Tiempo cada hora Cayo Jutías

Hoy, 15 Enero, Viernes

Tiempo Temperatura Precipitaciones Viento Presión Humedad
00:00 +21°C° 0 mm 3 mps 760 mmHg 98%
01:00 +21°C° 0.1 mm 3 mps 760 mmHg 97%
02:00 +21°C° 0.1 mm 3 mps 760 mmHg 96%
03:00 +21°C° 0.1 mm 3 mps 759 mmHg 95%
04:00 +21°C° 0.1 mm 2 mps 759 mmHg 96%
05:00 +21°C° 0.1 mm 2 mps 760 mmHg 96%
06:00 +22°C° 0 mm 1 mps 760 mmHg 96%
07:00 +23°C° 0.2 mm 1 mps 760 mmHg 96%
08:00 +23°C° 0.2 mm 1 mps 760 mmHg 95%
09:00 +24°C° 0.2 mm 1 mps 761 mmHg 94%
10:00 +25°C° 0.4 mm 2 mps 760 mmHg 89%
11:00 +26°C° 0.4 mm 2 mps 760 mmHg 85%
12:00 +27°C° 0.4 mm 3 mps 760 mmHg 80%
13:00 +27°C° 0.1 mm 3 mps 759 mmHg 78%
14:00 +27°C° 0.1 mm 3 mps 759 mmHg 77%
15:00 +27°C° 0.1 mm 3 mps 758 mmHg 75%
16:00 +26°C° 0 mm 3 mps 759 mmHg 81%
17:00 +25°C° 0 mm 2 mps 759 mmHg 87%
18:00 +23°C° 0 mm 2 mps 760 mmHg 93%
19:00 +23°C° 0 mm 2 mps 760 mmHg 93%
20:00 +22°C° 0 mm 3 mps 760 mmHg 92%
21:00 +22°C° 0 mm 4 mps 761 mmHg 91%
22:00 +22°C° 0 mm 4 mps 761 mmHg 88%
23:00 +22°C° 0 mm 5 mps 761 mmHg 86%

Mañana, 16 Enero, Sábado

Tiempo Temperatura Precipitaciones Viento Presión Humedad
00:00 +22°C° 0 mm 5 mps 760 mmHg 83%
01:00 +22°C° 0.1 mm 6 mps 761 mmHg 85%
02:00 +22°C° 0.1 mm 6 mps 761 mmHg 87%
03:00 +22°C° 0.1 mm 7 mps 761 mmHg 88%
04:00 +22°C° 0.1 mm 7 mps 761 mmHg 87%
05:00 +22°C° 0.1 mm 7 mps 762 mmHg 85%
06:00 +21°C° 0.1 mm 7 mps 762 mmHg 83%
07:00 +22°C° 0 mm 6 mps 762 mmHg 78%
08:00 +23°C° 0 mm 6 mps 763 mmHg 72%
09:00 +23°C° 0 mm 6 mps 763 mmHg 67%
10:00 +24°C° 0 mm 6 mps 763 mmHg 63%
11:00 +24°C° 0 mm 6 mps 763 mmHg 59%
12:00 +26°C° 0 mm 7 mps 763 mmHg 56%
13:00 +24°C° 0 mm 6 mps 763 mmHg 55%
14:00 +25°C° 0 mm 5 mps 762 mmHg 55%
15:00 +25°C° 0 mm 5 mps 762 mmHg 54%
16:00 +22°C° 0 mm 5 mps 762 mmHg 61%
17:00 +20°C° 0 mm 5 mps 762 mmHg 67%
18:00 +19°C° 0 mm 4 mps 763 mmHg 74%
19:00 +19°C° 0 mm 4 mps 763 mmHg 75%
20:00 +18°C° 0 mm 4 mps 763 mmHg 76%
21:00 +18°C° 0 mm 3 mps 763 mmHg 78%
22:00 +18°C° 0 mm 3 mps 763 mmHg 78%
23:00 +18°C° 0 mm 4 mps 763 mmHg 78%

Pasado mañana, 17 Enero, Domingo

Tiempo Temperatura Precipitaciones Viento Presión Humedad
00:00 +18°C° 0 mm 4 mps 763 mmHg 78%
01:00 +18°C° 0 mm 3 mps 762 mmHg 77%
02:00 +18°C° 0 mm 3 mps 762 mmHg 77%
03:00 +18°C° 0 mm 3 mps 761 mmHg 77%
04:00 +18°C° 0 mm 2 mps 762 mmHg 77%
05:00 +18°C° 0 mm 2 mps 762 mmHg 77%
06:00 +18°C° 0 mm 1 mps 763 mmHg 77%
07:00 +20°C° 0 mm 1 mps 763 mmHg 72%
08:00 +22°C° 0 mm 1 mps 763 mmHg 66%
09:00 +23°C° 0 mm 1 mps 764 mmHg 60%
10:00 +25°C° 0 mm 1 mps 763 mmHg 56%
11:00 +26°C° 0 mm 1 mps 763 mmHg 52%
12:00 +27°C° 0 mm 2 mps 763 mmHg 48%
13:00 +25°C° 0 mm 2 mps 763 mmHg 54%
14:00 +24°C° 0 mm 2 mps 762 mmHg 59%
15:00 +23°C° 0 mm 2 mps 762 mmHg 64%
16:00 +21°C° 0.1 mm 2 mps 762 mmHg 68%
17:00 +20°C° 0.1 mm 2 mps 763 mmHg 71%
18:00 +20°C° 0.1 mm 3 mps 763 mmHg 75%
19:00 +19°C° 1 mm 2 mps 764 mmHg 82%
20:00 +18°C° 1 mm 2 mps 764 mmHg 89%
21:00 +18°C° 1 mm 2 mps 764 mmHg 96%
22:00 +19°C° 0.2 mm 1 mps 764 mmHg 95%
23:00 +19°C° 0.2 mm 1 mps 764 mmHg 95%

18 Enero, Lunes

Tiempo Temperatura Precipitaciones Viento Presión Humedad
00:00 +16°C° 0.2 mm 0 mps 764 mmHg 94%
01:00 +18°C° 0.1 mm 1 mps 764 mmHg 94%
02:00 +18°C° 0.1 mm 1 mps 763 mmHg 93%
03:00 +18°C° 0.1 mm 1 mps 763 mmHg 93%
04:00 +18°C° 0.1 mm 1 mps 763 mmHg 93%
05:00 +18°C° 0.1 mm 1 mps 764 mmHg 93%
06:00 +18°C° 0.1 mm 1 mps 764 mmHg 93%
07:00 +19°C° 0 mm 2 mps 765 mmHg 88%
08:00 +20°C° 0 mm 2 mps 765 mmHg 83%
09:00 +22°C° 0 mm 3 mps 766 mmHg 79%
10:00 +23°C° 0 mm 4 mps 766 mmHg 74%
11:00 +25°C° 0 mm 5 mps 765 mmHg 68%
12:00 +26°C° 0 mm 5 mps 765 mmHg 63%
13:00 +25°C° 0 mm 5 mps 765 mmHg 63%
14:00 +25°C° 0 mm 5 mps 764 mmHg 63%
15:00 +24°C° 0 mm 6 mps 764 mmHg 63%
16:00 +23°C° 0 mm 6 mps 764 mmHg 69%
17:00 +21°C° 0 mm 6 mps 764 mmHg 75%
18:00 +20°C° 0 mm 6 mps 765 mmHg 80%
19:00 +19°C° 0 mm 6 mps 765 mmHg 82%
20:00 +19°C° 0 mm 6 mps 765 mmHg 84%
21:00 +17°C° 0 mm 6 mps 766 mmHg 85%
22:00 +17°C° 0 mm 6 mps 766 mmHg 87%
23:00 +17°C° 0 mm 6 mps 765 mmHg 88%

19 Enero, Martes

Tiempo Temperatura Precipitaciones Viento Presión Humedad
00:00 +16°C° 0 mm 7 mps 765 mmHg 89%
01:00 +16°C° 0 mm 6 mps 765 mmHg 89%
02:00 +16°C° 0 mm 6 mps 765 mmHg 90%
03:00 +16°C° 0 mm 6 mps 765 mmHg 90%
04:00 +16°C° 0 mm 6 mps 765 mmHg 90%
05:00 +16°C° 0 mm 6 mps 766 mmHg 89%
06:00 +16°C° 0 mm 6 mps 766 mmHg 89%
07:00 +19°C° 0 mm 6 mps 766 mmHg 82%
08:00 +21°C° 0 mm 6 mps 767 mmHg 76%
09:00 +23°C° 0 mm 7 mps 767 mmHg 69%
10:00 +24°C° 0 mm 7 mps 767 mmHg 66%
11:00 +26°C° 0 mm 6 mps 767 mmHg 64%
12:00 +27°C° 0 mm 6 mps 766 mmHg 61%
13:00 +27°C° 0 mm 7 mps 766 mmHg 62%
14:00 +27°C° 0 mm 7 mps 766 mmHg 62%
15:00 +27°C° 0 mm 7 mps 765 mmHg 63%
16:00 +26°C° 0 mm 7 mps 765 mmHg 71%
17:00 +23°C° 0 mm 7 mps 765 mmHg 79%
18:00 +22°C° 0 mm 6 mps 766 mmHg 86%
19:00 +21°C° 0 mm 6 mps 766 mmHg 88%
20:00 +20°C° 0 mm 6 mps 766 mmHg 90%
21:00 +20°C° 0 mm 6 mps 767 mmHg 92%
22:00 +19°C° 0 mm 6 mps 766 mmHg 92%
23:00 +19°C° 0 mm 5 mps 766 mmHg 93%

20 Enero, Miércoles

Tiempo Temperatura Precipitaciones Viento Presión Humedad
00:00 +19°C° 0 mm 5 mps 766 mmHg 93%
01:00 +19°C° 0 mm 5 mps 766 mmHg 93%
02:00 +19°C° 0 mm 5 mps 765 mmHg 93%
03:00 +19°C° 0 mm 5 mps 765 mmHg 94%
04:00 +19°C° 0 mm 6 mps 766 mmHg 94%
05:00 +17°C° 0 mm 6 mps 766 mmHg 94%
06:00 +17°C° 0 mm 7 mps 766 mmHg 94%
07:00 +20°C° 0 mm 7 mps 767 mmHg 86%
08:00 +22°C° 0 mm 7 mps 767 mmHg 78%
09:00 +24°C° 0 mm 8 mps 767 mmHg 71%
10:00 +24°C° 0 mm 8 mps 767 mmHg 70%
11:00 +24°C° 0 mm 8 mps 767 mmHg 69%
12:00 +24°C° 0 mm 8 mps 766 mmHg 69%
13:00 +26°C° 0 mm 7 mps 766 mmHg 67%
14:00 +26°C° 0 mm 7 mps 765 mmHg 65%
15:00 +26°C° 0 mm 7 mps 765 mmHg 63%
16:00 +23°C° 0 mm 7 mps 765 mmHg 70%
17:00 +22°C° 0 mm 7 mps 765 mmHg 76%
18:00 +20°C° 0 mm 7 mps 765 mmHg 83%
19:00 +19°C° 0 mm 6 mps 765 mmHg 85%
20:00 +19°C° 0 mm 6 mps 766 mmHg 88%
21:00 +17°C° 0 mm 6 mps 766 mmHg 90%
22:00 +17°C° 0 mm 6 mps 765 mmHg 91%
23:00 +16°C° 0 mm 6 mps 765 mmHg 93%
Mostrar más